Miscellaneous Local Product
Issued by NWS North Platte, NE

Home | Current Version | Previous Version | Text Only | Print | Product List | Glossary On
Versions: 1 2 3 4 5 6 7 8 9 10 11 12 13 14 15 16 17 18 19 20 21 22 23 24 25 26 27 28 29 30 31 32 33 34 35 36 37 38 39 40 41 42 43 44 45 46 47 48 49 50
000
AXUS43 KLBF 231410
MISLBF


WESTERN AND NORTH CENTRAL NEBRASKA HOURLY WEATHER ROUNDUP
NATIONAL WEATHER SERVICE NORTH PLATTE NE
900 AM CDT THU OCT 23 2014

***STATIONS NOT REPORTING VARIABLES SUCH AS SKY/WEATHER OR
PRESSURE ARE PROVIDED BY THE NEBRASKA DEPARTMENT OF
ROADS...RAWS...AND APRS NETWORKS...AND ARE NOT UNDER
NATIONAL WEATHER SERVICE QUALITY CONTROL***

...OBSERVATIONS IN AND NEAR THE EASTERN PANHANDLE OF NEBRASKA...

CITY           SKY/WX    TMP DP  RH WIND       PRES   REMARKS
PINE RIDGE     CLEAR     29  25  85 NW5       30.03S WCI  24
CHADRON        CLEAR     34  25  69 W3        30.04S
ALLIANCE       PTCLDY    31  27  85 SW7       30.08S WCI  24
SIDNEY         CLEAR     38  33  82 W6        30.12S WCI  33
WHITECLAY        N/A     29  24  81 S5          N/A  WCI  24
RUSHVILLE        N/A     27  25  93 SW7         N/A  WCI  19
CRESCENT LAKE    N/A     45  32  59 CALM        N/A
LISCO            N/A     34  28  77 CALM        N/A
BIG SPRINGS      N/A     37  34  90 CALM        N/A
LEWELLEN         N/A     34  32  93 CALM        N/A
$$

...OBSERVATIONS IN NORTH CENTRAL NEBRASKA...

CITY           SKY/WX    TMP DP  RH WIND       PRES   REMARKS
VALENTINE      CLEAR     33  32  96 SW8       30.03S WCI  26
THEDFORD       CLEAR     43  42  98 CALM      30.08R
AINSWORTH      CLEAR     43  43 100 SW6       30.04R
O`NEILL          N/A     42  42 100 SW5       30.06R FOG
ORD            FOG       39  39 100 CALM      30.07R VSB<1/4
BROKEN BOW     FOG       41  40  96 CALM      30.08R VSB 1/4
BROWNLEE         N/A     42  41  96 SW10        N/A
SPRINGVIEW       N/A     31  30  95 CALM        N/A
BREWSTER         N/A     47  47  99 W3          N/A
ROSE             N/A     42  41  99 S7          N/A
NEWPORT          N/A     40  40  99 SW5         N/A
SARGENT          N/A     37  36  98 CALM        N/A
COMSTOCK         N/A     44  44  99 CALM        N/A
CHAMBERS         N/A     45  44  98 S3          N/A
EWING            N/A     41  40  97 CALM        N/A
$$

...OBSERVATIONS IN SOUTHWEST NEBRASKA AND FAR NORTHEAST COLORADO...

CITY           SKY/WX    TMP DP  RH WIND       PRES   REMARKS
WRAY           FAIR      42  37  80 W5        30.14R
HOLYOKE        FAIR      43  34  70 W6        30.12R
IMPERIAL       CLEAR     43  34  70 W3        30.12R
OGALLALA       CLEAR     36  35  94 CALM      30.11R
NORTH PLATTE   PTCLDY    39  38  96 CALM      30.10R
MCCOOK         FOG       46  46 100 SW5       30.12R VSB<1/4
LEXINGTON      FOG       47  47  97 W5        30.10R VSB<1/4
PAXTON           N/A     36  33  88 CALM        N/A
SUTHERLAND       N/A     34  32  94 W6          N/A  WCI  28
BRADY            N/A     46  45  95 CALM        N/A
GOTHENBURG       N/A     46  44  94 W3          N/A
CALLAWAY         N/A     48  47  97 CALM        N/A
$$

...SOME WEATHER OBSERVATIONS FROM AROUND THE REGION...

CITY           SKY/WX    TMP DP  RH WIND       PRES   REMARKS
DENVER         PTCLDY    45  34  65 E5        30.17S
LARAMIE        CLEAR     43  29  57 SW16      30.20S
CHEYENNE       PTCLDY    47  31  53 SW13      30.16S
SCOTTSBLUFF    PTCLDY    35  31  85 CALM      30.09F
RAPID CITY     PTCLDY    38  24  57 CALM      29.97F
PIERRE         CLEAR     39  35  86 SW5       29.97S
WINNER         FAIR      49  42  77 CALM      30.00R
SIOUX FALLS    MOSUNNY   45  44  97 CALM      30.03R FOG
OMAHA          CLOUDY    61  58  90 N5        30.05R FOG
GRAND ISLAND   FOG       46  44  93 W3        30.09R VSB<1/4
KANSAS CITY    PTSUNNY   58  57  97 S8        30.08R
WICHITA        CLOUDY    63  59  87 S8        30.09S
HAYS           CLOUDY    57  52  82 E3        30.10R VSB 1/4
LIBERAL        CLOUDY    54  48  82 CALM      30.10R VSB<1/4
GOODLAND       PTCLDY    46  43  89 W5        30.15R
$$



USA.gov is the U.S. government's official web portal to all federal, state and local government web resources and services.